Location: Britannia Beach
(45.3521°N, 62.9901°W)
Time: 11:42:08
(UTC+00:00)

Envisat - Visible Passes

Search period start: 30 July 2021 00:00
Search period end: 09 August 2021 00:00
Orbit: 764 x 766 km, 98.2° (Epoch: 29 July)

Date Brightness Start Highest point End Pass type
(mag) Time Alt. Az. Time Alt. Az. Time Alt. Az.
01 Aug 5.9 08:08:20 10° ENE 08:10:44 13° E 08:13:07 10° ESE visible
04 Aug 6.3 07:58:37 10° E 07:59:04 10° E 07:59:31 10° E visible
06 Aug 5.7 08:21:19 10° NE 08:24:47 18° E 08:28:12 10° SE visible
